CAPE
2881 2884 2636 2539 2600 2612 2440 2389 2314 2155 2157 2032 2020 2011 1901 1875 1908 1903 1967 1876 1773 1727 1663 1647 1533 1570 1517 1635 1738 1792 1654 1672 1638 1587 1468 1463 1486 1453 1364 1285 1230 1190 1151 1117 1091 1043 1018 976 908 862 765 780 803 752 768 759 782 1005 1094 997 777 694 620 724 844 474 392 470 263 264 293 315 352 515 557 688 318 164 184 137 114 126 299 507 407
2887 2786 2689 2543 2572 2582 2517 2504 2389 2263 2239 2197 2153 2175 2113 2042 1937 1924 1962 1985 1842 1755 1675 1677 1552 1589 1730 1763 1776 1659 1700 1654 1834 1718 1701 1442 1506 1473 1487 1433 1350 1286 1255 1198 1181 1154 1132 1073 1049 1048 1139 892 930 904 870 789 659 902 784 986 819 743 818 666 521 277 270 258 367 326 369 262 356 388 441 598 546 228 177 132 146 271 296 339 288
3013 2840 2646 2583 2710 2781 2780 2676 2532 2373 2323 2330 2235 2242 2180 2158 2042 1956 1907 1860 1810 1767 1704 1700 1686 1681 1670 1681 1688 1740 1802 1978 2027 1832 1753 1692 1597 1471 1479 1385 1304 1304 1300 1290 1239 1244 1209 1159 1121 1264 999 1069 945 943 968 782 784 813 910 893 997 827 749 671 500 248 482 415 325 162 269 312 551 341 339 518 584 454 206 165 176 197 158 237 339
2879 2853 2695 2640 2774 2907 2734 2785 2567 2376 2366 2322 2246 2197 2173 2183 2088 2007 1885 1823 1806 1783 1695 1714 1744 1803 1745 1786 1808 1955 2047 1839 1742 1649 1677 1567 1868 1589 1392 1421 1276 1281 1312 1292 1213 1194 1164 1078 1021 1216 1240 1100 979 1024 991 931 931 1131 1126 1027 1003 975 850 679 469 331 286 197 154 144 323 196 260 589 475 515 721 693 322 178 211 195 199 170 336
3057 2742 2682 2656 2650 2851 2611 2687 2493 2453 2402 2344 2271 2204 2193 2075 2023 1984 1887 1828 1761 1738 1754 1756 1746 1730 1715 1727 1799 1692 1552 1675 1764 1818 1794 1808 1867 2069 2012 1456 1372 1216 1186 1106 1037 1044 1091 1022 1090 1193 1085 1162 1034 957 1023 1003 945 978 1010 942 946 771 803 801 550 369 335 361 289 165 290 169 310 526 569 616 800 438 468 313 281 320 317 309 138
2901 2858 2661 2591 2475 2657 2410 2300 2382 2506 2346 2313 2564 2471 2358 2280 2110 1902 1863 1809 1806 1815 1854 1757 1886 1759 1918 1887 1739 1658 1583 1716 1705 1573 1644 1899 2002 2059 1811 1339 1224 1184 1063 1030 1038 1030 1106 933 964 720 679 784 700 735 874 866 955 919 1202 1203 1135 1374 1168 530 817 506 470 412 456 651 844 834 786 861 456 548 747 473 511 451 388 381 409 351 273
2971 2662 2595 2419 2186 2153 1764 1633 2393 2418 2560 2558 2447 2386 2207 2338 2078 1850 1855 1893 1939 1896 1870 1951 1977 1898 2080 2174 1952 1769 1701 1886 1891 1884 2060 1978 1894 1690 1333 1051 895 1034 1037 943 900 789 668 614 566 546 534 504 503 516 559 602 587 740 897 839 1097 1334 1118 1003 1086 1137 684 302 326 397 720 907 589 492 447 526 565 890 424 639 326 422 420 368 343
2757 2713 2568 2337 2154 1888 1486 1687 2300 2303 2309 2314 2284 2267 2091 2056 2030 1865 1885 2055 2071 1980 1984 2157 2211 2170 2064 1993 2048 1774 1649 1729 1951 1983 1600 1476 1394 1202 1104 889 736 849 944 826 867 726 678 594 554 491 474 434 513 463 583 570 576 591 636 935 1255 1306 1019 672 745 893 863 768 545 310 380 562 584 478 431 434 474 469 730 456 387 392 352 388 330
2648 2441 2334 2061 2225 2009 1464 1591 2098 2267 2283 2307 2244 2160 2147 2150 2057 2059 2102 2160 2098 2029 2099 2128 2100 2022 1974 1906 1670 1601 1802 1881 1644 1444 1450 1133 1294 1158 1091 1009 866 669 873 829 770 752 745 699 622 558 516 542 496 628 515 491 473 468 478 540 485 675 759 888 876 793 798 848 832 416 393 582 554 434 259 350 319 318 594 484 337 406 384 462 287
2182 2052 2055 1993 2194 1837 1441 1605 2191 2000 2164 2254 2063 2161 2158 2138 2131 2214 2180 2072 1866 1926 1771 1606 1434 1383 1478 1585 1797 1768 1762 1631 1543 1562 1388 1193 1618 1610 1370 1038 973 1075 911 698 767 687 659 635 604 592 606 536 441 491 445 362 342 321 319 337 432 345 501 778 696 773 846 845 807 506 740 533 516 434 278 360 433 409 419 400 320 312 234 620 378
2121 1817 1908 2251 2033 1634 1174 1724 1958 1873 1994 2054 2170 2222 2359 2160 2042 2137 2123 1825 1658 1552 1544 1635 1743 1816 1865 1936 2058 1803 1627 1497 1468 1444 1365 1429 1290 1296 1236 1200 1144 949 936 967 857 623 608 570 579 593 510 451 456 473 391 424 298 249 215 166 153 132 183 335 549 415 538 640 670 498 503 578 779 534 626 518 402 361 283 114 252 378 355 512 662
1998 1537 2034 2078 1758 1643 1277 1697 1788 1518 1530 2067 2198 2364 2321 2062 1961 2034 1775 1610 1760 1643 1735 1550 1748 1762 1959 1936 1744 1493 1507 1486 1496 1395 1272 1214 1149 1011 1007 1015 942 963 756 668 666 531 473 475 490 429 452 432 483 465 380 296 259 278 344 350 260 238 235 318 432 468 513 500 533 646 372 578 840 705 935 877 673 588 438 392 467 454 232 184 712
2087 1737 1625 1482 1261 1477 1602 1846 1511 1361 1504 2026 2360 2329 2207 2014 1923 1909 1668 1542 1500 1400 1437 1489 1518 1468 1492 1352 1187 1233 1320 1323 1238 1215 1063 1065 896 902 849 654 554 512 414 329 326 185 217 223 242 259 327 348 278 236 275 281 266 246 235 181 165 130 155 242 433 506 550 449 383 676 755 295 123 248 361 426 794 832 666 406 465 512 136 286 422
2332 1770 1834 1540 1201 1572 1831 1469 1056 812 1564 1624 1747 1794 2108 1936 1798 1782 1596 1562 1589 1504 1444 1415 1459 1430 1230 1103 962 894 917 797 823 780 757 774 738 675 553 403 379 344 266 214 115 83 99 137 216 221 178 161 127 116 123 131 157 166 191 187 171 272 252 418 393 100 581 230 355 662 820 536 294 366 662 588 563 498 460 454 464 410 386 201 404
2502 2096 1582 1485 1186 1557 1670 1097 860 961 1390 1145 1339 1338 1790 1905 1882 1804 1698 1577 1527 1397 1285 1241 1231 1198 987 856 879 965 874 774 695 617 524 461 331 353 328 307 252 203 100 74 69 74 82 123 136 149 130 106 101 128 115 127 134 181 233 240 233 274 242 508 589 504 244 382 201 93 697 794 787 708 840 702 531 466 410 449 491 258 181 112 138
2392 2097 1773 1764 1335 1628 1604 1304 1047 1395 1520 1364 1192 1520 1876 1809 1827 1750 1471 1418 1353 1225 1186 1111 1064 996 933 978 934 885 747 618 578 526 460 355 220 171 137 100 63 48 69 33 24 27 84 93 135 152 124 118 86 122 143 209 234 293 344 344 347 261 253 273 314 376 517 545 388 569 778 713 693 725 766 387 232 343 258 387 383 261 148 104 177
2334 2104 1840 1677 1623 1619 1379 1481 1557 1603 1467 1466 1134 1184 1429 1544 1455 1278 1199 1187 1153 1119 1140 1098 951 870 858 861 843 709 598 541 514 474 430 326 86 61 35 26 32 112 38 23 18 16 33 63 45 71 64 86 98 100 141 194 226 261 296 280 314 474 413 178 292 410 540 826 712 752 813 655 649 720 831 515 311 268 391 312 209 89 100 93 178
2216 2088 1809 1409 1634 1672 1522 1620 1822 1821 1575 1396 1354 1262 1339 1148 989 952 1034 1062 1044 1039 985 919 868 805 800 781 726 651 630 619 586 498 346 105 24 12 11 9 10 10 14 14 15 13 14 14 12 24 57 76 101 131 176 201 257 276 321 320 357 409 331 223 264 488 770 822 889 804 718 549 712 930 745 763 701 503 408 430 321 293 127 80 63
2273 2168 2050 1589 1539 1656 1705 2048 2003 1759 1298 1299 1335 1249 1096 977 907 961 853 847 930 921 854 810 833 857 802 711 618 579 577 543 528 407 66 5 5 7 10 10 9 7 11 12 11 11 10 10 8 9 10 10 25 138 196 218 277 315 364 384 374 387 244 251 247 254 422 703 731 832 1026 923 856 741 723 722 664 565 494 389 167 116 88 93 90
2377 2488 2113 1612 1587 1446 1698 1908 1728 1425 1016 1122 1090 1088 1020 860 915 826 762 829 913 898 874 771 656 576 564 526 490 500 513 472 416 216 0 0 1 2 6 6 6 13 10 11 9 4 3 4 4 2 1 5 6 18 69 74 242 301 345 407 512 428 346 278 345 362 486 522 546 359 433 530 645 480 397 436 530 340 237 411 80 75 75 76 93
2515 2553 2170 1835 1605 1340 1582 1564 1296 1031 1057 1014 968 1003 848 724 828 834 834 835 808 718 594 500 426 405 425 437 506 443 325 252 113 0 0 0 1 2 4 8 8 8 8 9 4 2 2 3 3 4 2 2 1 1 5 15 147 253 330 418 445 432 394 417 366 433 411 315 244 392 440 528 516 412 435 311 284 283 137 149 119 85 67 66 78
2500 2508 2348 1789 1100 1100 1478 1360 1001 1132 1095 1109 1122 1005 736 689 722 720 690 722 734 773 609 503 415 321 328 553 347 223 139 0 0 0 0 1 2 2 6 5 7 7 3 3 3 2 1 2 3 0 1 5 4 5 11 2 58 43 208 299 323 317 354 348 448 349 410 405 382 305 424 458 480 497 380 275 281 245 190 128 119 78 67 53 83
1547 2346 2243 1874 1390 1353 1447 1280 1066 1073 1090 1154 1065 824 682 613 610 666 868 937 830 680 602 485 316 320 458 185 0 0 0 1 0 0 2 2 2 3 5 1 2 2 3 2 2 1 1 1 1 1 4 6 5 6 7 14 92 83 83 93 231 256 282 293 308 309 301 354 359 428 455 554 512 498 380 333 228 167 148 163 169 108 80 83 96
1844 1780 1603 1306 919 1265 1438 1247 1005 1063 1015 962 825 700 654 607 708 830 897 853 744 731 593 167 320 365 110 0 0 1 1 0 1 2 4 4 4 1 1 3 1 1 2 2 0 0 0 1 2 3 4 2 8 28 58 40 129 152 65 44 143 235 233 262 206 185 218 264 281 266 264 425 440 395 340 306 641 180 169 189 178 132 102 101 106
1247 1554 1838 1641 1136 1042 1357 1287 1042 941 897 893 849 788 724 756 819 872 878 868 831 650 130 190 117 0 0 0 0 0 0 3 4 4 5 3 1 1 2 1 1 1 2 1 2 1 1 2 3 1 2 7 31 81 89 114 84 82 66 52 66 92 148 161 140 152 194 278 251 242 267 240 244 197 234 426 704 329 244 197 165 159 130 115 90
1230 1424 1463 1242 1099 1055 1225 1284 1150 1072 896 862 866 820 733 784 822 778 702 593 322 7 190 24 0 1 0 0 0 2 3 5 5 4 2 1 1 1 1 3 2 3 3 3 2 2 2 3 1 9 13 17 28 39 8 1 4 7 8 9 2 4 18 60 68 65 62 103 184 166 190 208 246 379 360 245 456 516 487 349 193 175 138 126 167
1372 1283 1110 900 979 1111 1147 1129 1116 1068 813 719 777 854 780 690 559 541 292 2 46 183 1 0 2 1 1 0 4 6 5 4 3 2 1 1 2 3 3 3 3 3 4 3 3 4 2 1 5 1 0 2 7 1 3 4 5 6 4 2 2 4 6 2 3 3 3 3 2 124 4 146 205 275 281 441 391 254 233 332 522 320 126 112 119
1136 1098 1070 838 1009 1065 1029 1020 900 766 530 546 621 405 447 499 532 248 1 0 90 3 4 3 2 1 1 7 5 5 5 2 1 2 3 2 2 1 3 3 2 2 2 2 3 2 1 6 0 0 0 0 0 0 1 2 2 4 3 2 1 1 1 1 2 1 2 2 2 2 34 79 128 152 184 216 282 206 158 101 141 66 76 103 104
981 952 837 820 862 863 829 791 722 643 595 376 245 217 113 272 142 43 3 3 3 5 1 0 0 1 5 6 7 5 1 2 3 4 5 4 2 1 2 2 3 3 2 4 3 6 6 0 0 0 0 0 0 1 1 1 2 1 2 1 1 0 1 1 0 1 2 3 3 4 5 80 8 110 156 163 170 168 148 144 113 115 72 62 83
861 839 802 856 919 872 842 813 794 662 581 531 373 120 118 187 125 65 72 5 7 2 2 1 2 6 6 6 4 2 2 2 3 3 4 2 2 2 2 3 2 4 4 4 5 10 1 0 0 0 0 0 0 1 0 0 2 2 2 1 0 1 0 0 1 1 2 2 43 22 43 83 94 97 120 146 156 128 128 116 69 80 81 72 72
792 722 753 828 874 852 770 725 726 458 165 291 273 20 11 102 209 85 77 2 2 4 4 8 10 10 7 5 2 1 3 2 2 3 3 1 2 1 1 1 0 1 3 7 12 8 0 0 0 0 0 0 0 0 0 0 2 2 1 2 2 2 1 2 1 0 0 1 22 45 38 42 61 104 114 120 122 122 119 107 121 113 100 76 63
863 790 677 664 629 615 613 502 382 224 101 87 150 109 176 188 114 83 32 1 0 3 7 11 9 5 7 2 2 2 2 3 4 4 2 1 2 1 1 1 0 1 2 4 4 0 0 0 0 1 1 0 1 0 0 2 2 1 1 1 0 0 0 0 0 0 1 1 15 26 28 30 24 24 31 39 58 71 71 80 86 83 90 81 73
774 838 804 700 454 270 140 170 192 210 175 164 109 175 217 220 178 117 0 0 4 6 4 3 6 5 1 2 3 4 3 4 3 1 1 1 1 1 0 0 0 0 0 1 0 0 0 1 0 0 0 0 0 0 0 1 1 0 0 0 0 0 0 0 0 0 1 2 3 3 3 5 5 3 8 9 14 18 29 40 51 51 68 89 84
717 247 484 281 202 269 267 178 256 173 110 161 163 228 276 197 49 0 5 8 7 4 2 10 7 2 1 2 4 4 4 2 2 2 2 2 1 0 0 0 0 1 1 0 0 1 1 0 0 0 0 0 0 0 0 0 0 0 0 0 0 0 0 0 0 0 0 0 2 2 2 2 3 2 0 1 1 5 8 8 12 17 28 34 70
435 363 276 246 254 241 236 162 156 122 77 84 142 201 175 148 0 47 2 7 9 9 8 9 4 3 0 0 1 5 3 2 1 2 2 2 2 0 0 0 0 1 0 0 0 0 0 0 0 0 0 0 0 0 0 0 0 0 0 0 0 0 0 0 0 0 0 1 0 0 0 0 0 1 0 0 1 0 3 5 5 7 4 5 14
366 330 228 153 164 199 213 219 164 92 62 67 91 59 51 72 3 1 1 6 7 7 6 4 5 3 0 0 0 5 3 1 1 1 1 1 0 0 0 0 0 0 0 0 0 0 0 0 0 0 0 0 0 0 0 0 0 0 0 0 0 0 0 0 0 0 0 0 0 0 0 0 0 0 0 0 0 0 1 1 2 2 2 2 1
247 193 135 154 189 160 118 91 78 97 102 70 34 0 0 12 0 1 1 3 5 6 6 6 5 2 0 0 1 2 3 1 2 1 0 1 0 0 0 0 0 0 0 0 0 0 0 0 0 0 0 0 0 0 0 0 0 0 0 0 0 0 0 0 0 0 0 0 1 0 0 0 0 0 0 0 0 0 0 0 1 1 1 0 2
121 101 186 149 85 86 66 28 9 3 3 3 0 0 0 0 1 2 1 1 3 4 6 6 4 3 0 0 0 1 3 2 1 2 2 0 0 1 0 1 0 0 0 0 0 0 0 0 0 0 0 0 0 0 0 0 0 0 0 0 0 0 0 0 0 0 0 0 0 0 0 0 0 0 0 0 0 0 0 0 0 0 0 0 0
214 95 91 105 70 35 42 12 0 0 0 0 0 0 18 13 2 2 4 5 2 5 9 5 2 0 0 1 0 1 2 1 1 1 1 0 0 0 0 1 0 0 0 0 0 0 0 0 0 0 0 0 0 0 0 0 0 0 0 0 0 0 0 0 0 0 0 0 0 0 0 0 0 0 0 0 0 0 0 0 1 0 0 0 0
202 222 160 106 67 35 3 0 0 0 0 4 50 55 31 13 1 4 6 7 7 8 5 4 2 0 0 0 0 0 2 0 0 0 0 0 0 0 0 0 0 0 0 0 0 0 0 0 0 0 0 0 0 0 0 0 0 0 0 0 0 0 0 0 0 0 0 0 0 0 0 0 0 0 0 0 0 0 0 1 0 1 1 1 2
218 209 116 6 5 11 12 21 3 2 1 77 35 28 17 6 2 4 5 7 7 4 4 3 0 0 0 0 0 0 1 0 0 0 0 0 0 0 0 0 0 0 0 0 0 0 0 0 0 0 0 0 0 0 0 0 0 0 0 0 0 0 0 0 0 0 0 0 0 0 0 0 0 0 0 0 0 0 0 0 0 1 1 0 0
219 217 74 6 0 8 8 0 0 0 0 27 20 9 0 1 2 1 1 4 5 6 5 4 0 0 0 0 0 0 0 0 0 0 0 0 0 0 0 0 0 0 0 0 0 0 0 0 0 0 0 0 0 0 0 0 0 0 0 0 0 0 0 0 0 0 0 0 0 0 0 0 0 0 0 0 0 0 0 0 0 0 0 0 0
157 156 36 12 31 9 0 0 6 6 0 0 0 0 0 3 3 1 0 2 5 5 6 6 0 0 0 0 0 0 0 0 0 0 0 0 0 0 0 0 0 0 0 0 0 0 0 0 0 0 0 0 0 0 0 0 0 0 0 0 0 0 0 0 0 0 0 0 0 0 0 0 0 0 0 0 0 0 0 0 0 0 0 0 0
164 101 35 55 16 0 0 8 14 21 9 0 0 0 1 0 0 0 2 4 3 2 1 0 0 0 1 0 2 1 0 0 0 0 0 0 0 0 0 0 0 0 0 0 0 0 0 0 0 0 0 0 0 0 0 0 0 0 0 0 0 0 0 0 0 0 0 0 0 0 0 0 0 0 0 0 0 0 0 0 0 0 0 0 0
40 17 68 15 3 0 2 9 17 26 11 4 1 0 0 1 0 1 1 0 0 1 1 0 0 1 1 0 3 1 0 0 0 0 0 0 0 0 0 0 0 0 0 0 0 0 0 0 0 0 0 0 0 0 0 0 0 0 0 0 0 0 0 0 0 0 0 0 0 0 0 0 0 0 0 0 0 0 0 0 0 0 0 0 0
0 3 12 4 5 2 0 1 0 10 38 0 1 1 2 0 0 2 3 4 3 2 2 1 2 2 1 2 2 0 1 0 0 0 0 0 0 0 0 0 0 0 0 0 0 0 0 0 0 0 0 0 0 0 0 0 0 0 0 0 0 0 0 0 0 0 0 0 0 0 0 0 0 0 0 0 0 0 0 0 0 0 0 0 0
58 35 4 4 7 6 3 3 2 5 5 0 0 0 0 0 2 4 3 1 2 2 1 3 5 3 2 4 2 0 1 1 0 0 0 0 0 0 0 0 0 0 0 0 0 0 0 0 0 0 0 0 0 0 0 0 0 0 0 0 0 0 0 0 0 0 0 0 0 0 0 0 0 0 0 0 0 0 0 0 0 0 0 0 0
31 20 10 2 3 4 5 3 0 0 2 0 1 0 1 2 3 5 2 1 3 2 2 2 2 4 1 0 0 0 0 0 0 0 0 0 0 0 0 0 0 0 0 0 0 0 0 0 0 0 0 0 0 0 0 0 0 0 0 0 0 0 0 0 0 0 0 0 0 0 0 0 0 0 0 0 0 0 0 0 0 0 0 0 0
8 1 1 3 3 4 5 3 2 0 0 0 0 0 1 1 1 1 2 3 3 2 1 0 0 0 0 0 0 0 0 0 0 0 0 0 0 0 0 0 0 0 0 0 0 0 0 0 0 0 0 0 0 0 0 0 0 0 0 0 0 0 0 0 0 0 0 0 0 0 0 0 0 0 0 0 0 0 0 0 0 0 0 0 0
0 0 0 2 5 6 4 3 2 0 0 0 0 0 0 0 0 0 0 1 2 2 1 0 0 0 0 0 0 0 0 0 0 0 0 0 0 0 0 0 0 0 0 0 0 0 0 0 0 0 0 0 0 0 0 0 0 0 0 0 0 0 0 0 0 0 0 0 0 0 0 0 0 0 0 0 0 0 0 0 0 0 0 0 0
4 0 2 4 7 7 8 3 0 0 0 0 0 0 0 0 0 0 0 0 0 0 0 0 0 0 0 0 0 0 0 0 0 0 0 0 0 0 0 0 0 0 0 0 0 0 0 0 0 0 0 0 0 0 0 0 0 0 0 0 0 0 0 0 0 0 0 0 0 0 0 0 0 0 0 0 0 0 0 0 0 0 0 0 0
Wind_Speed
22 21 17 14 14 16 17 20 20 22 22 22 22 20 18 18 18 19 18 17 17 16 15 15 16 17 17 16 15 15 15 15 13 13 13 13 14 14 15 16 17 19 20 21 21 21 20 19 18 18 18 18 18 18 19 19 19 20 21 23 22 21 22 23 21 21 21 21 22 19 19 20 19 19 17 19 21 22 21 19 22 19 19 20 22
25 23 18 16 16 17 19 20 21 23 23 23 23 22 20 19 18 20 20 17 16 15 15 15 15 16 16 16 15 15 15 14 14 15 15 15 14 15 15 16 18 19 20 21 21 21 20 19 19 18 19 19 18 17 18 19 20 20 20 21 24 23 23 26 26 27 23 22 21 22 21 20 20 20 20 19 20 22 22 18 17 19 19 19 21
23 22 21 19 20 20 21 21 21 22 24 23 24 24 21 19 18 19 19 17 15 15 15 15 15 16 16 16 15 16 14 14 14 15 15 15 15 15 15 16 17 19 21 22 21 21 20 19 18 19 18 18 18 19 20 20 21 20 20 21 23 26 25 28 27 27 22 24 24 23 23 21 24 24 22 20 20 20 23 21 18 19 17 18 21
21 22 21 20 22 23 23 23 23 24 25 25 24 23 21 19 18 18 18 16 15 15 15 16 16 16 16 16 15 14 15 15 14 14 14 14 15 15 15 16 17 19 21 22 23 22 21 20 18 19 19 18 17 18 19 20 22 22 23 23 24 22 26 28 30 31 27 28 26 28 26 25 20 25 25 22 22 21 22 21 20 18 19 19 22
21 22 23 23 24 23 23 26 27 25 25 24 23 21 20 18 18 17 17 16 16 16 16 17 16 16 16 16 14 12 13 14 15 15 16 16 15 16 17 17 18 20 21 22 23 23 22 20 19 19 18 18 18 18 19 20 21 22 23 24 25 25 24 27 30 32 33 30 24 26 28 28 24 25 28 25 29 24 22 22 21 21 21 21 20
20 21 24 25 25 26 26 26 24 23 23 22 21 20 19 18 17 17 16 16 16 15 16 15 15 15 15 14 14 13 13 14 14 15 17 17 17 17 18 18 18 20 21 22 23 22 21 20 20 19 18 18 18 19 20 21 22 24 24 24 24 25 25 23 24 29 29 30 28 27 25 25 26 28 29 27 33 25 23 21 21 21 22 21 19
23 24 27 28 29 32 36 29 17 19 21 22 22 21 20 17 15 15 15 16 15 15 14 14 14 12 12 12 12 12 12 14 16 17 17 18 17 17 18 17 18 20 21 22 22 22 22 21 20 20 20 20 20 21 21 22 22 22 24 26 27 28 29 27 25 26 29 27 27 28 27 28 28 26 25 26 24 29 25 23 21 20 22 21 20
25 27 28 33 41 37 24 11 12 20 23 21 21 22 18 16 15 14 15 15 14 13 12 12 12 11 11 11 11 12 13 15 17 18 18 18 18 18 18 18 19 20 21 22 23 23 23 22 21 21 21 21 21 22 23 24 24 25 25 25 26 28 28 29 28 28 28 28 32 29 28 28 28 26 24 23 25 23 25 25 21 21 21 21 22
22 27 35 36 30 19 16 20 22 25 25 23 21 19 16 16 15 16 16 15 14 13 13 12 12 12 12 14 14 14 14 16 17 17 18 18 19 20 20 20 20 20 21 21 22 23 23 22 21 21 21 21 21 22 23 24 24 25 26 27 28 29 31 31 31 31 30 29 32 32 29 29 30 28 24 25 25 22 20 24 25 27 22 20 20
24 35 37 26 23 23 28 33 32 25 28 28 23 19 17 18 18 20 19 19 18 17 15 14 15 14 15 14 14 14 14 16 16 18 18 18 20 21 21 21 21 21 21 21 22 23 22 21 21 20 20 20 20 21 21 22 24 25 26 27 28 29 30 33 34 32 32 30 30 27 28 29 28 26 26 27 27 24 20 26 28 29 23 20 21
39 39 30 30 37 29 29 34 32 25 24 23 22 19 19 19 19 22 22 22 20 18 17 16 15 14 15 14 13 15 16 17 18 19 19 19 19 20 20 21 22 22 23 23 23 22 22 21 20 20 20 20 20 20 20 22 24 25 27 28 29 30 30 30 33 32 31 29 29 30 29 27 27 25 27 29 27 25 25 21 25 29 24 20 21
41 31 30 40 37 28 27 28 24 20 12 11 20 22 22 21 22 24 23 22 22 20 19 16 14 14 14 14 15 16 17 18 20 20 19 19 20 20 20 20 20 22 23 22 22 20 20 20 20 19 19 19 19 20 21 23 24 26 28 30 29 30 31 32 31 30 30 29 27 28 28 28 26 25 25 26 25 24 25 23 24 28 27 18 18
29 29 37 37 30 22 19 18 17 19 17 16 23 23 24 25 27 28 24 22 22 20 18 15 14 14 15 16 18 18 19 20 21 20 19 19 19 20 21 19 19 20 21 21 21 20 21 20 20 19 19 19 19 19 21 22 23 25 27 28 29 29 31 33 34 34 32 31 29 29 28 26 25 25 24 23 24 24 24 22 23 28 27 22 17
28 28 29 29 27 19 14 18 21 25 25 24 25 22 23 23 26 31 28 23 21 22 19 18 17 16 16 17 19 20 21 21 21 21 20 20 20 20 20 20 19 20 19 20 21 nan nan 20 19 19 19 18 19 19 20 22 23 25 26 27 27 28 28 30 32 31 32 29 28 26 24 23 22 23 25 23 23 25 23 21 23 27 27 21 19
25 21 20 23 25 24 23 22 24 23 24 22 18 17 22 22 21 27 28 25 24 23 21 19 17 18 18 18 20 21 21 22 22 22 22 22 21 22 22 21 20 20 nan nan nan nan nan 19 19 18 18 18 18 18 20 21 24 25 27 27 27 27 27 28 31 31 28 26 26 nan 22 19 18 19 23 20 23 21 20 19 21 20 24 22 17
20 16 14 17 23 28 26 22 22 21 21 21 22 16 19 20 20 23 25 26 25 25 22 19 18 18 20 22 22 22 22 23 23 23 24 24 24 23 22 nan nan nan nan nan nan nan nan nan 18 17 16 17 nan 17 18 20 22 24 25 26 25 27 27 24 26 27 26 23 20 18 17 15 14 13 17 17 17 17 16 18 18 19 20 20 21
18 17 19 23 26 27 25 24 22 22 21 20 20 22 20 19 19 18 21 24 24 25 23 20 20 21 22 23 23 24 24 25 25 25 25 25 nan nan nan nan nan 22 nan nan nan nan nan nan nan nan nan nan nan 17 17 18 20 23 25 24 24 24 26 25 24 25 24 22 21 19 17 14 12 12 13 14 15 15 15 16 15 nan 20 nan 21
22 27 32 28 25 22 25 28 28 26 25 21 20 20 23 21 19 17 18 22 22 23 22 21 21 22 23 24 25 25 25 26 26 26 26 25 nan nan nan nan nan nan nan nan nan nan nan nan nan nan nan nan 17 17 17 18 19 21 22 23 22 22 24 25 24 22 21 20 19 19 17 13 13 13 11 13 13 12 14 16 17 19 20 nan nan
29 31 27 23 23 20 20 26 27 26 23 20 20 21 21 19 16 16 16 19 21 20 20 19 20 20 22 24 25 26 26 27 27 27 nan nan nan nan nan nan nan nan nan nan nan nan nan nan nan nan nan nan nan 17 17 18 19 20 22 24 24 23 22 24 22 19 17 19 17 14 13 11 10 8 9 11 12 13 14 16 17 20 nan nan nan
30 30 28 25 24 24 22 23 24 23 22 22 24 22 20 16 16 17 19 20 21 20 18 19 20 22 25 26 26 26 27 27 28 28 nan nan nan nan nan nan nan nan nan nan nan nan nan nan nan nan nan nan nan nan nan nan 18 19 21 23 24 22 21 22 22 19 18 18 17 14 10 8 7 7 7 9 12 13 12 15 nan nan nan nan nan
33 30 30 28 28 29 27 23 22 23 24 24 25 25 20 17 18 20 22 21 20 18 18 19 22 24 26 27 27 27 28 28 29 nan nan nan nan nan nan nan nan nan nan nan nan nan nan nan nan nan nan nan nan nan nan nan 17 17 19 21 22 22 20 21 22 20 18 17 17 14 11 9 7 7 9 11 12 12 12 13 15 nan nan nan nan
33 29 29 35 34 33 27 23 24 26 27 28 25 23 22 20 19 20 20 20 20 19 20 21 22 24 27 27 28 28 29 nan nan nan nan nan nan nan nan nan nan nan nan nan nan nan nan nan nan nan nan nan nan nan nan nan nan nan 18 22 22 21 21 20 21 20 19 18 15 13 11 10 9 7 9 10 13 13 12 12 12 nan nan nan nan
31 28 30 34 34 30 29 31 32 32 32 32 28 24 22 22 22 20 21 21 21 22 22 23 24 25 27 28 nan nan nan nan nan nan nan nan nan nan nan nan nan nan nan nan nan nan nan nan nan nan nan nan nan nan nan nan nan nan nan nan 21 21 21 21 21 21 19 18 15 14 12 11 11 10 10 11 12 12 13 11 9 10 nan nan nan
31 31 37 37 33 33 31 36 36 32 30 31 30 27 23 22 22 21 23 23 23 24 24 26 26 27 29 nan nan nan nan nan nan nan nan nan nan nan nan nan nan nan nan nan nan nan nan nan nan nan nan nan nan nan nan nan 17 17 nan nan 20 22 22 21 21 21 19 18 17 14 12 11 10 9 11 13 15 13 14 12 9 8 9 10 11
34 34 35 36 35 34 32 31 34 33 29 26 26 26 24 23 23 24 24 25 25 25 26 27 27 nan nan nan nan nan nan nan nan nan nan nan nan nan nan nan nan nan nan nan nan nan nan nan nan nan nan nan nan nan nan 18 nan nan nan nan nan nan 22 21 21 20 19 17 16 15 13 11 11 10 11 13 16 14 14 14 10 10 10 11 nan
35 36 37 36 36 35 34 32 31 32 31 28 27 27 26 26 26 25 26 25 25 nan 27 nan nan nan nan nan nan nan nan nan nan nan nan nan nan nan nan nan nan nan nan nan nan nan nan nan nan nan nan nan nan nan nan nan nan nan nan nan nan nan nan nan nan nan nan 18 16 15 13 14 12 11 11 12 13 13 14 14 12 12 13 11 13
35 34 34 34 31 32 34 35 35 33 28 29 31 30 29 29 30 28 28 nan nan 30 nan nan nan nan nan nan nan nan nan nan nan nan nan nan nan nan nan nan nan nan nan nan nan nan nan nan nan nan nan nan nan nan nan nan nan nan nan nan nan nan nan nan nan nan nan nan nan 17 nan 16 13 12 11 12 13 12 13 14 15 15 16 15 14
36 34 35 36 33 32 32 33 36 34 32 33 33 31 32 33 32 30 nan nan nan nan nan nan nan nan nan nan nan nan nan nan nan nan nan nan nan nan nan nan nan nan nan nan nan nan nan nan nan nan nan nan nan nan nan nan nan nan nan nan nan nan nan nan nan nan nan nan nan nan nan nan 18 18 16 13 13 13 13 13 13 nan nan 18 18
37 37 37 37 35 35 36 35 34 34 37 37 35 35 36 36 34 nan nan nan nan nan nan nan nan nan nan nan nan nan nan nan nan nan nan nan nan nan nan nan nan nan nan nan nan nan nan nan nan nan nan nan nan nan nan nan nan nan nan nan nan nan nan nan nan nan nan nan nan nan nan nan nan 26 27 27 26 22 15 13 14 15 nan nan nan
37 36 37 36 35 36 38 39 36 35 36 36 34 34 35 33 31 nan nan nan nan nan nan nan nan nan nan nan nan nan nan nan nan nan nan nan nan nan nan nan nan nan nan nan nan nan nan nan nan nan nan nan nan nan nan nan nan nan nan nan nan nan nan nan nan nan nan nan nan nan nan nan nan nan 30 32 34 33 31 26 nan nan nan nan nan
37 37 37 37 35 35 37 39 38 35 35 34 34 nan nan 32 31 nan nan nan nan nan nan nan nan nan nan nan nan nan nan nan nan nan nan nan nan nan nan nan nan nan nan nan nan nan nan nan nan nan nan nan nan nan nan nan nan nan nan nan nan nan nan nan nan nan nan nan nan nan nan nan nan 24 25 29 30 32 33 33 33 32 28 nan nan
36 37 38 38 38 38 36 35 35 35 36 nan 37 35 35 35 36 nan nan nan nan nan nan nan nan nan nan nan nan nan nan nan nan nan nan nan nan nan nan nan nan nan nan nan nan nan nan nan nan nan nan nan nan nan nan nan nan nan nan nan nan nan nan nan nan nan nan nan nan nan nan nan nan nan nan nan nan nan nan nan nan nan nan nan nan
35 37 39 39 39 37 35 34 34 35 39 41 40 40 38 38 39 38 nan nan nan nan nan nan nan nan nan nan nan nan nan nan nan nan nan nan nan nan nan nan nan nan nan nan nan nan nan nan nan nan nan nan nan nan nan nan nan nan nan nan nan nan nan nan nan nan nan nan nan nan nan nan nan nan nan nan nan nan nan nan nan nan nan nan nan
39 38 37 38 39 40 39 37 38 40 43 44 43 43 40 39 nan nan nan nan nan nan nan nan nan nan nan nan nan nan nan nan nan nan nan nan nan nan nan nan nan nan nan nan nan nan nan nan nan nan nan nan nan nan nan nan nan nan nan nan nan nan nan nan nan nan nan nan nan nan nan nan nan nan nan nan nan nan nan nan nan nan nan nan nan
40 39 38 41 44 44 43 43 43 44 nan nan 44 43 42 42 nan nan nan nan nan nan nan nan nan nan nan nan nan nan nan nan nan nan nan nan nan nan nan nan nan nan nan nan nan nan nan nan nan nan nan nan nan nan nan nan nan nan nan nan nan nan nan nan nan nan nan nan nan nan nan nan nan nan nan nan nan nan nan nan nan nan nan nan nan
42 42 39 41 43 44 43 43 42 nan nan nan nan nan nan nan nan nan nan nan nan nan nan nan nan nan nan nan nan nan nan nan nan nan nan nan nan nan nan nan nan nan nan nan nan nan nan nan nan nan nan nan nan nan nan nan nan nan nan nan nan nan nan nan nan nan nan nan nan nan nan nan nan nan nan nan nan nan nan nan nan nan nan nan nan
41 41 38 35 36 39 41 nan nan nan 41 nan nan nan nan nan nan nan nan nan nan nan nan nan nan nan nan nan nan nan nan nan nan nan nan nan nan nan nan nan nan nan nan nan nan nan nan nan nan nan nan nan nan nan nan nan nan nan nan nan nan nan nan nan nan nan nan nan nan nan nan nan nan nan nan nan nan nan nan nan nan nan nan nan nan
41 41 39 35 nan nan nan nan nan nan nan nan nan nan nan nan nan nan nan nan nan nan nan nan nan nan nan nan nan nan nan nan nan nan nan nan nan nan nan nan nan nan nan nan nan nan nan nan nan nan nan nan nan nan nan nan nan nan nan nan nan nan nan nan nan nan nan nan nan nan nan nan nan nan nan nan nan nan nan nan nan nan nan nan nan
40 nan nan 39 nan nan nan nan nan nan nan nan nan nan nan nan nan nan nan nan nan nan nan nan nan nan nan nan nan nan nan nan nan nan nan nan nan nan nan nan nan nan nan nan nan nan nan nan nan nan nan nan nan nan nan nan nan nan nan nan nan nan nan nan nan nan nan nan nan nan nan nan nan nan nan nan nan nan nan nan nan nan nan nan nan
42 42 42 42 nan nan nan nan nan nan nan nan nan nan nan nan nan nan nan nan nan nan nan nan nan nan nan nan nan nan nan nan nan nan nan nan nan nan nan nan nan nan nan nan nan nan nan nan nan nan nan nan nan nan nan nan nan nan nan nan nan nan nan nan nan nan nan nan nan nan nan nan nan nan nan nan nan nan nan nan nan nan nan nan nan
40 41 41 nan nan nan nan nan nan nan nan nan nan nan nan nan nan nan nan nan nan nan nan nan nan nan nan nan nan nan nan nan nan nan nan nan nan nan nan nan nan nan nan nan nan nan nan nan nan nan nan nan nan nan nan nan nan nan nan nan nan nan nan nan nan nan nan nan nan nan nan nan nan nan nan nan nan nan nan nan nan nan nan nan nan
36 36 nan nan nan nan nan nan nan nan nan nan nan nan nan nan nan nan nan nan nan nan nan nan nan nan nan nan nan nan nan nan nan nan nan nan nan nan nan nan nan nan nan nan nan nan nan nan nan nan nan nan nan nan nan nan nan nan nan nan nan nan nan nan nan nan nan nan nan nan nan nan nan nan nan nan nan nan nan nan nan nan nan nan nan
35 32 nan nan nan nan nan nan nan nan nan nan nan nan nan nan nan nan nan nan nan nan nan nan nan nan nan nan nan nan nan nan nan nan nan nan nan nan nan nan nan nan nan nan nan nan nan nan nan nan nan nan nan nan nan nan nan nan nan nan nan nan nan nan nan nan nan nan nan nan nan nan nan nan nan nan nan nan nan nan nan nan nan nan nan
34 34 nan nan nan nan nan nan nan nan nan nan nan nan nan nan nan nan nan nan nan nan nan nan nan nan nan nan nan nan nan nan nan nan nan nan nan nan nan nan nan nan nan nan nan nan nan nan nan nan nan nan nan nan nan nan nan nan nan nan nan nan nan nan nan nan nan nan nan nan nan nan nan nan nan nan nan nan nan nan nan nan nan nan nan
nan nan nan nan nan nan nan nan nan nan nan nan nan nan nan nan nan nan nan nan nan nan nan nan nan nan nan nan nan nan nan nan nan nan nan nan nan nan nan nan nan nan nan nan nan nan nan nan nan nan nan nan nan nan nan nan nan nan nan nan nan nan nan nan nan nan nan nan nan nan nan nan nan nan nan nan nan nan nan nan nan nan nan nan nan
nan nan nan nan nan nan nan nan nan nan nan nan nan nan nan nan nan nan nan nan nan nan nan nan nan nan nan nan nan nan nan nan nan nan nan nan nan nan nan nan nan nan nan nan nan nan nan nan nan nan nan nan nan nan nan nan nan nan nan nan nan nan nan nan nan nan nan nan nan nan nan nan nan nan nan nan nan nan nan nan nan nan nan nan nan
nan nan nan nan nan nan nan nan nan nan nan nan nan nan nan nan nan nan nan nan nan nan nan nan nan nan nan nan nan nan nan nan nan nan nan nan nan nan nan nan nan nan nan nan nan nan nan nan nan nan nan nan nan nan nan nan nan nan nan nan nan nan nan nan nan nan nan nan nan nan nan nan nan nan nan nan nan nan nan nan nan nan nan nan nan
nan nan nan nan nan nan nan nan nan nan nan nan nan nan nan nan nan nan nan nan nan nan nan nan nan nan nan nan nan nan nan nan nan nan nan nan nan nan nan nan nan nan nan nan nan nan nan nan nan nan nan nan nan nan nan nan nan nan nan nan nan nan nan nan nan nan nan nan nan nan nan nan nan nan nan nan nan nan nan nan nan nan nan nan nan
nan nan nan nan nan nan nan nan nan nan nan nan nan nan nan nan nan nan nan nan nan nan nan nan nan nan nan nan nan nan nan nan nan nan nan nan nan nan nan nan nan nan nan nan nan nan nan nan nan nan nan nan nan nan nan nan nan nan nan nan nan nan nan nan nan nan nan nan nan nan nan nan nan nan nan nan nan nan nan nan nan nan nan nan nan
nan nan nan nan nan nan nan nan nan nan nan nan nan nan nan nan nan nan nan nan nan nan nan nan nan nan nan nan nan nan nan nan nan nan nan nan nan nan nan nan nan nan nan nan nan nan nan nan nan nan nan nan nan nan nan nan nan nan nan nan nan nan nan nan nan nan nan nan nan nan nan nan nan nan nan nan nan nan nan nan nan nan nan nan nan
nan nan nan nan nan nan nan nan nan nan nan nan nan nan nan nan nan nan nan nan nan nan nan nan nan nan nan nan nan nan nan nan nan nan nan nan nan nan nan nan nan nan nan nan nan nan nan nan nan nan nan nan nan nan nan nan nan nan nan nan nan nan nan nan nan nan nan nan nan nan nan nan nan nan nan nan nan nan nan nan nan nan nan nan nan
Wind_Direction
267 271 266 262 265 263 258 255 255 257 262 267 272 275 276 276 271 265 261 263 259 258 256 255 256 257 258 258 256 255 256 259 265 271 279 283 290 300 309 316 320 321 319 316 312 310 306 303 303 303 304 306 307 307 309 313 316 320 323 324 325 323 323 319 315 308 307 309 311 311 307 307 307 304 305 294 289 282 279 267 255 257 260 261 266
269 269 269 263 258 261 256 253 256 260 261 265 270 273 274 273 269 265 263 264 262 260 257 255 255 258 258 259 257 258 262 267 273 278 279 284 293 304 312 318 321 321 320 319 314 311 306 303 302 303 304 306 305 305 309 313 319 321 322 324 325 326 319 314 312 305 307 306 304 306 306 304 307 305 299 294 289 286 288 285 266 259 258 257 261
270 270 269 262 260 261 252 250 253 259 264 265 266 269 269 265 262 262 261 261 262 259 257 252 256 258 258 258 261 262 267 270 272 273 278 285 294 302 310 314 319 322 322 321 316 312 308 304 303 301 305 304 308 312 315 317 319 322 323 324 321 320 318 313 314 313 306 302 301 297 299 293 297 298 295 296 295 289 286 287 280 271 267 259 260
274 273 274 264 257 253 247 246 250 254 259 260 261 265 262 261 261 261 261 259 257 258 254 257 260 260 259 261 265 264 264 274 278 278 281 288 296 301 308 313 319 321 322 321 318 314 311 308 303 301 301 305 310 312 315 318 320 323 327 328 326 322 319 317 318 315 309 302 300 303 295 291 283 289 290 289 292 287 283 280 279 279 274 267 260
270 268 267 263 258 254 248 246 246 251 254 257 259 261 255 264 260 260 257 256 254 258 260 260 261 260 256 256 263 270 273 279 283 287 290 292 296 304 307 310 315 319 320 320 317 315 312 308 303 300 303 308 312 314 316 320 323 324 328 328 328 325 322 317 316 316 316 314 305 296 295 295 292 278 278 280 284 283 284 281 275 274 275 271 267
267 267 264 259 255 247 247 246 246 246 252 253 255 257 258 257 258 255 254 254 253 260 262 260 260 261 264 272 276 279 284 289 293 292 293 294 294 293 295 301 307 313 317 318 317 313 308 305 303 301 302 304 307 313 318 322 328 328 328 325 325 323 320 318 315 315 317 317 315 307 297 286 278 276 275 270 276 279 278 279 274 275 277 272 265
263 261 259 255 250 246 234 222 217 244 246 248 252 255 258 252 255 255 253 250 252 258 263 260 263 265 279 281 281 286 284 285 280 282 285 287 290 292 295 300 305 310 314 316 316 313 308 303 301 301 301 303 307 312 318 321 322 322 320 324 325 321 322 321 321 315 313 316 313 310 307 296 286 280 276 267 264 274 277 273 271 273 275 272 263
266 267 261 246 241 243 249 243 231 248 246 250 251 251 259 256 257 255 247 246 249 254 261 260 268 274 282 276 269 278 274 278 282 282 283 288 293 297 301 304 308 312 314 316 316 315 312 307 304 304 304 306 311 317 321 322 323 322 322 321 318 318 319 319 322 321 321 315 311 309 306 302 298 290 281 270 260 255 263 268 263 264 270 269 264
263 260 252 250 260 271 261 248 246 249 246 249 252 253 259 258 255 248 243 242 245 252 253 256 253 263 266 264 267 268 275 278 282 289 295 299 302 303 305 306 309 312 313 316 318 316 314 310 306 306 306 307 312 316 321 322 324 323 322 322 322 320 319 320 321 322 322 320 313 307 307 300 294 289 283 278 269 260 253 257 254 255 260 260 261
259 248 251 256 248 241 234 233 238 244 244 241 242 244 253 252 246 247 240 238 240 245 249 250 254 255 259 263 276 282 285 291 297 299 302 306 305 304 307 307 306 308 312 315 315 315 312 308 306 305 306 307 311 315 318 321 321 320 321 322 323 325 324 324 325 323 321 318 314 312 309 301 294 286 282 277 271 265 252 251 253 256 264 264 259
249 240 238 242 233 231 233 238 244 240 227 232 239 246 255 264 257 250 244 242 239 242 247 249 251 256 265 276 285 293 299 300 301 300 299 301 301 304 307 309 310 310 312 311 310 311 310 308 305 303 304 308 312 315 317 317 318 319 322 325 326 326 325 325 326 325 322 320 316 307 299 294 292 286 281 277 271 263 258 254 249 256 268 264 258
247 240 234 240 237 222 231 243 247 260 270 239 245 253 261 266 266 256 247 239 236 240 243 250 259 264 269 282 289 296 300 299 297 296 297 300 302 302 306 308 308 309 308 309 310 308 309 307 304 304 304 306 310 313 316 318 319 321 322 322 322 323 326 327 325 324 325 319 315 306 303 297 288 283 277 274 270 263 260 257 257 255 258 270 256
258 249 247 249 243 225 234 253 246 251 263 248 242 252 268 273 267 260 250 243 237 240 247 252 262 269 277 284 289 293 293 294 294 297 298 298 298 299 300 300 303 305 306 309 310 308 309 307 304 303 303 305 307 311 314 317 318 319 321 322 323 325 327 329 326 327 326 322 314 305 298 293 288 275 261 255 257 258 257 258 260 258 257 266 270
259 263 260 262 265 262 266 252 238 237 244 234 228 240 259 270 268 264 254 247 246 243 241 246 248 255 266 277 286 289 289 290 293 294 295 296 295 292 295 298 301 302 304 305 307 nan nan 302 300 298 298 300 304 309 312 315 317 319 321 322 322 323 326 330 331 330 325 322 317 312 306 295 286 275 265 256 252 254 256 259 257 257 258 267 267
258 266 265 264 261 263 260 255 247 254 267 259 240 238 250 252 262 264 252 243 247 246 242 245 250 256 265 274 282 286 288 290 291 293 291 290 291 293 295 296 297 299 nan nan nan nan nan 296 293 292 293 297 301 306 310 315 319 321 323 322 321 321 327 328 328 329 327 327 321 nan 309 299 287 279 268 258 254 257 260 260 263 261 264 273 274
252 259 262 265 254 253 257 256 252 268 272 272 275 245 231 250 258 266 253 238 241 246 246 249 253 260 268 273 277 280 285 289 288 290 292 292 294 294 293 nan nan nan nan nan nan nan nan nan 290 288 290 293 nan 301 307 314 317 318 320 322 323 321 326 331 329 329 331 332 330 320 308 298 287 279 270 263 258 257 262 265 268 269 270 274 279
244 252 249 248 239 247 250 254 257 267 266 274 277 286 292 275 264 262 253 244 244 245 248 254 259 264 268 271 274 276 279 282 285 288 291 293 nan nan nan nan nan 298 nan nan nan nan nan nan nan nan nan nan nan 298 307 314 316 317 318 318 318 323 329 330 330 332 335 335 330 330 314 301 293 284 273 267 264 265 266 270 278 nan 276 nan 270
241 244 248 247 238 245 244 243 254 264 270 277 282 283 284 275 261 245 237 243 247 251 254 258 264 267 269 270 272 275 279 283 285 288 291 293 nan nan nan nan nan nan nan nan nan nan nan nan nan nan nan nan 289 298 306 310 313 316 317 320 321 325 329 328 328 331 337 339 337 331 323 317 306 291 281 273 264 260 265 272 271 267 268 nan nan
230 240 250 252 261 264 255 250 254 262 272 284 289 286 280 269 256 252 243 239 247 250 257 258 261 265 266 268 272 275 279 282 285 288 nan nan nan nan nan nan nan nan nan nan nan nan nan nan nan nan nan nan nan 295 300 304 308 316 319 322 323 325 329 330 326 326 331 337 344 344 336 332 326 308 284 271 263 262 267 271 270 266 nan nan nan
237 239 252 252 256 267 264 259 262 264 267 274 275 269 267 261 260 255 245 242 244 249 254 258 261 265 267 270 272 275 277 279 281 284 nan nan nan nan nan nan nan nan nan nan nan nan nan nan nan nan nan nan nan nan nan nan 311 313 313 317 319 323 325 330 329 325 318 323 336 344 341 337 328 308 283 270 265 273 279 279 nan nan nan nan nan
243 253 258 256 256 260 255 254 259 262 262 263 262 264 263 259 255 247 243 240 242 245 250 257 262 265 267 268 270 272 273 277 279 nan nan nan nan nan nan nan nan nan nan nan nan nan nan nan nan nan nan nan nan nan nan nan 310 309 311 313 315 319 319 318 325 327 319 315 321 329 333 335 326 305 284 274 278 289 290 290 285 nan nan nan nan
238 245 250 257 253 251 241 251 259 259 255 256 255 260 263 261 258 253 246 246 251 253 260 262 262 264 266 267 268 269 271 nan nan nan nan nan nan nan nan nan nan nan nan nan nan nan nan nan nan nan nan nan nan nan nan nan nan nan 310 311 312 314 318 318 316 318 317 311 309 317 327 328 320 296 278 279 281 290 297 294 297 nan nan nan nan
234 254 257 256 265 262 255 251 253 253 253 252 253 259 267 271 270 266 264 264 265 268 265 264 264 264 263 264 nan nan nan nan nan nan nan nan nan nan nan nan nan nan nan nan nan nan nan nan nan nan nan nan nan nan nan nan nan nan nan nan 310 311 314 315 313 309 308 302 297 295 303 307 302 293 281 281 287 295 295 295 299 287 nan nan nan
244 244 250 242 242 257 253 249 251 250 253 255 257 260 263 268 273 273 273 273 271 268 265 264 264 263 261 nan nan nan nan nan nan nan nan nan nan nan nan nan nan nan nan nan nan nan nan nan nan nan nan nan nan nan nan nan 301 304 nan nan 308 308 313 315 312 310 310 311 304 298 297 295 293 285 276 279 284 290 294 289 289 289 280 271 267
250 251 252 250 249 255 259 253 252 251 249 251 259 261 259 261 266 270 270 268 267 267 267 266 265 nan nan nan nan nan nan nan nan nan nan nan nan nan nan nan nan nan nan nan nan nan nan nan nan nan nan nan nan nan nan 288 nan nan nan nan nan nan 309 314 316 314 310 310 304 298 294 287 282 278 276 284 287 292 293 296 293 287 287 274 nan
252 254 253 250 246 247 257 261 255 249 248 247 253 258 260 261 263 266 270 270 267 nan 267 nan nan nan nan nan nan nan nan nan nan nan nan nan nan nan nan nan nan nan nan nan nan nan nan nan nan nan nan nan nan nan nan nan nan nan nan nan nan nan nan nan nan nan nan 299 298 290 285 282 279 280 277 274 282 288 294 299 297 283 286 287 266
265 269 273 273 265 260 259 259 259 260 253 251 254 258 262 263 264 266 271 nan nan 269 nan nan nan nan nan nan nan nan nan nan nan nan nan nan nan nan nan nan nan nan nan nan nan nan nan nan nan nan nan nan nan nan nan nan nan nan nan nan nan nan nan nan nan nan nan nan nan 293 nan 279 278 277 277 276 273 269 279 288 289 281 279 279 276
265 269 274 274 270 266 264 263 262 259 255 257 257 257 259 262 266 268 nan nan nan nan nan nan nan nan nan nan nan nan nan nan nan nan nan nan nan nan nan nan nan nan nan nan nan nan nan nan nan nan nan nan nan nan nan nan nan nan nan nan nan nan nan nan nan nan nan nan nan nan nan nan 266 263 264 264 269 274 269 268 275 nan nan 276 276
269 274 278 279 277 272 270 270 266 261 260 259 258 254 254 260 264 nan nan nan nan nan nan nan nan nan nan nan nan nan nan nan nan nan nan nan nan nan nan nan nan nan nan nan nan nan nan nan nan nan nan nan nan nan nan nan nan nan nan nan nan nan nan nan nan nan nan nan nan nan nan nan nan 256 249 254 253 252 260 263 262 270 nan nan nan
273 273 273 274 277 275 270 265 263 262 261 263 263 262 264 265 266 nan nan nan nan nan nan nan nan nan nan nan nan nan nan nan nan nan nan nan nan nan nan nan nan nan nan nan nan nan nan nan nan nan nan nan nan nan nan nan nan nan nan nan nan nan nan nan nan nan nan nan nan nan nan nan nan nan 256 254 254 254 255 259 nan nan nan nan nan
271 272 272 272 273 274 272 267 262 257 261 260 263 nan nan 270 272 nan nan nan nan nan nan nan nan nan nan nan nan nan nan nan nan nan nan nan nan nan nan nan nan nan nan nan nan nan nan nan nan nan nan nan nan nan nan nan nan nan nan nan nan nan nan nan nan nan nan nan nan nan nan nan nan 276 270 257 255 255 256 254 251 248 246 nan nan
270 272 275 276 274 275 273 266 259 260 268 nan 274 275 275 278 280 nan nan nan nan nan nan nan nan nan nan nan nan nan nan nan nan nan nan nan nan nan nan nan nan nan nan nan nan nan nan nan nan nan nan nan nan nan nan nan nan nan nan nan nan nan nan nan nan nan nan nan nan nan nan nan nan nan nan nan nan nan nan nan nan nan nan nan nan
268 272 274 271 270 270 267 261 261 267 271 274 277 280 281 282 280 280 nan nan nan nan nan nan nan nan nan nan nan nan nan nan nan nan nan nan nan nan nan nan nan nan nan nan nan nan nan nan nan nan nan nan nan nan nan nan nan nan nan nan nan nan nan nan nan nan nan nan nan nan nan nan nan nan nan nan nan nan nan nan nan nan nan nan nan
262 267 268 265 261 259 263 264 267 271 270 272 275 279 279 279 nan nan nan nan nan nan nan nan nan nan nan nan nan nan nan nan nan nan nan nan nan nan nan nan nan nan nan nan nan nan nan nan nan nan nan nan nan nan nan nan nan nan nan nan nan nan nan nan nan nan nan nan nan nan nan nan nan nan nan nan nan nan nan nan nan nan nan nan nan
269 268 263 261 262 265 267 268 270 273 nan nan 273 276 277 278 nan nan nan nan nan nan nan nan nan nan nan nan nan nan nan nan nan nan nan nan nan nan nan nan nan nan nan nan nan nan nan nan nan nan nan nan nan nan nan nan nan nan nan nan nan nan nan nan nan nan nan nan nan nan nan nan nan nan nan nan nan nan nan nan nan nan nan nan nan
265 266 260 260 265 268 270 271 271 nan nan nan nan nan nan nan nan nan nan nan nan nan nan nan nan nan nan nan nan nan nan nan nan nan nan nan nan nan nan nan nan nan nan nan nan nan nan nan nan nan nan nan nan nan nan nan nan nan nan nan nan nan nan nan nan nan nan nan nan nan nan nan nan nan nan nan nan nan nan nan nan nan nan nan nan
259 266 268 261 266 265 265 nan nan nan 267 nan nan nan nan nan nan nan nan nan nan nan nan nan nan nan nan nan nan nan nan nan nan nan nan nan nan nan nan nan nan nan nan nan nan nan nan nan nan nan nan nan nan nan nan nan nan nan nan nan nan nan nan nan nan nan nan nan nan nan nan nan nan nan nan nan nan nan nan nan nan nan nan nan nan
256 253 255 257 nan nan nan nan nan nan nan nan nan nan nan nan nan nan nan nan nan nan nan nan nan nan nan nan nan nan nan nan nan nan nan nan nan nan nan nan nan nan nan nan nan nan nan nan nan nan nan nan nan nan nan nan nan nan nan nan nan nan nan nan nan nan nan nan nan nan nan nan nan nan nan nan nan nan nan nan nan nan nan nan nan
262 nan nan 269 nan nan nan nan nan nan nan nan nan nan nan nan nan nan nan nan nan nan nan nan nan nan nan nan nan nan nan nan nan nan nan nan nan nan nan nan nan nan nan nan nan nan nan nan nan nan nan nan nan nan nan nan nan nan nan nan nan nan nan nan nan nan nan nan nan nan nan nan nan nan nan nan nan nan nan nan nan nan nan nan nan
267 268 272 273 nan nan nan nan nan nan nan nan nan nan nan nan nan nan nan nan nan nan nan nan nan nan nan nan nan nan nan nan nan nan nan nan nan nan nan nan nan nan nan nan nan nan nan nan nan nan nan nan nan nan nan nan nan nan nan nan nan nan nan nan nan nan nan nan nan nan nan nan nan nan nan nan nan nan nan nan nan nan nan nan nan
278 276 273 nan nan nan nan nan nan nan nan nan nan nan nan nan nan nan nan nan nan nan nan nan nan nan nan nan nan nan nan nan nan nan nan nan nan nan nan nan nan nan nan nan nan nan nan nan nan nan nan nan nan nan nan nan nan nan nan nan nan nan nan nan nan nan nan nan nan nan nan nan nan nan nan nan nan nan nan nan nan nan nan nan nan
268 274 nan nan nan nan nan nan nan nan nan nan nan nan nan nan nan nan nan nan nan nan nan nan nan nan nan nan nan nan nan nan nan nan nan nan nan nan nan nan nan nan nan nan nan nan nan nan nan nan nan nan nan nan nan nan nan nan nan nan nan nan nan nan nan nan nan nan nan nan nan nan nan nan nan nan nan nan nan nan nan nan nan nan nan
274 269 nan nan nan nan nan nan nan nan nan nan nan nan nan nan nan nan nan nan nan nan nan nan nan nan nan nan nan nan nan nan nan nan nan nan nan nan nan nan nan nan nan nan nan nan nan nan nan nan nan nan nan nan nan nan nan nan nan nan nan nan nan nan nan nan nan nan nan nan nan nan nan nan nan nan nan nan nan nan nan nan nan nan nan
269 272 nan nan nan nan nan nan nan nan nan nan nan nan nan nan nan nan nan nan nan nan nan nan nan nan nan nan nan nan nan nan nan nan nan nan nan nan nan nan nan nan nan nan nan nan nan nan nan nan nan nan nan nan nan nan nan nan nan nan nan nan nan nan nan nan nan nan nan nan nan nan nan nan nan nan nan nan nan nan nan nan nan nan nan
nan nan nan nan nan nan nan nan nan nan nan nan nan nan nan nan nan nan nan nan nan nan nan nan nan nan nan nan nan nan nan nan nan nan nan nan nan nan nan nan nan nan nan nan nan nan nan nan nan nan nan nan nan nan nan nan nan nan nan nan nan nan nan nan nan nan nan nan nan nan nan nan nan nan nan nan nan nan nan nan nan nan nan nan nan
nan nan nan nan nan nan nan nan nan nan nan nan nan nan nan nan nan nan nan nan nan nan nan nan nan nan nan nan nan nan nan nan nan nan nan nan nan nan nan nan nan nan nan nan nan nan nan nan nan nan nan nan nan nan nan nan nan nan nan nan nan nan nan nan nan nan nan nan nan nan nan nan nan nan nan nan nan nan nan nan nan nan nan nan nan
nan nan nan nan nan nan nan nan nan nan nan nan nan nan nan nan nan nan nan nan nan nan nan nan nan nan nan nan nan nan nan nan nan nan nan nan nan nan nan nan nan nan nan nan nan nan nan nan nan nan nan nan nan nan nan nan nan nan nan nan nan nan nan nan nan nan nan nan nan nan nan nan nan nan nan nan nan nan nan nan nan nan nan nan nan
nan nan nan nan nan nan nan nan nan nan nan nan nan nan nan nan nan nan nan nan nan nan nan nan nan nan nan nan nan nan nan nan nan nan nan nan nan nan nan nan nan nan nan nan nan nan nan nan nan nan nan nan nan nan nan nan nan nan nan nan nan nan nan nan nan nan nan nan nan nan nan nan nan nan nan nan nan nan nan nan nan nan nan nan nan
nan nan nan nan nan nan nan nan nan nan nan nan nan nan nan nan nan nan nan nan nan nan nan nan nan nan nan nan nan nan nan nan nan nan nan nan nan nan nan nan nan nan nan nan nan nan nan nan nan nan nan nan nan nan nan nan nan nan nan nan nan nan nan nan nan nan nan nan nan nan nan nan nan nan nan nan nan nan nan nan nan nan nan nan nan
nan nan nan nan nan nan nan nan nan nan nan nan nan nan nan nan nan nan nan nan nan nan nan nan nan nan nan nan nan nan nan nan nan nan nan nan nan nan nan nan nan nan nan nan nan nan nan nan nan nan nan nan nan nan nan nan nan nan nan nan nan nan nan nan nan nan nan nan nan nan nan nan nan nan nan nan nan nan nan nan nan nan nan nan nan
nan nan nan nan nan nan nan nan nan nan nan nan nan nan nan nan nan nan nan nan nan nan nan nan nan nan nan nan nan nan nan nan nan nan nan nan nan nan nan nan nan nan nan nan nan nan nan nan nan nan nan nan nan nan nan nan nan nan nan nan nan nan nan nan nan nan nan nan nan nan nan nan nan nan nan nan nan nan nan nan nan nan nan nan nan